Regional Weather Roundup
Issued by NWS

Home | Current Version | Previous Version | Text Only | Print | Product List | Glossary Off
Versions: 1 2 3 4 5 6 7 8 9 10 11 12 13 14 15 16 17 18 19 20 21 22 23 24 25 26 27 28 29 30 31 32 33 34 35 36 37 38 39 40 41 42 43 44 45 46 47 48 49 50

665
ASUS45 KABQ 291401
RWRNM
NEW MEXICO REGIONAL WEATHER ROUNDUP
NATIONAL WEATHER SERVICE ALBUQUERQUE NM
800 AM MDT MON AUG 29 2016

NOTE: "FAIR" MEANS FEW OR NO CLOUDS BELOW 12,000 FEET AGL WITH NO
       SIGNIFICANT WEATHER OR OBSTRUCTIONS TO VISION.

      THIS PRODUCT IS RELEASED AS TWO VERSIONS.  ONE VERSION NEAR
      THE TOP OF THE HOUR CONTAINING PRELIMINARY DATA FROM ALBUQUERQUE
      AND OTHER STATIONS.  A FINAL VERSION WITH ADDITIONAL DATA IS
      ISSUED ABOUT 10 MINUTES AFTER THE HOUR.

NMZ501-503-504-510>518-291500-
NORTHWEST PLATEAU/NORTHCENTRAL MOUNTAINS

CITY           SKY/WX    TMP DP  RH WIND       PRES   REMARKS
FARMINGTON     FAIR      52  46  80 E7        30.30R
SANTA FE       FAIR      58  47  66 NE16      30.36R
TAOS           CLOUDY    52  41  66 CALM      30.45R
ANGEL FIRE     PTSUNNY   43  40  89 CALM      30.50R

$$
NMZ402-403-502-505>509-291500-
WESTCENTRAL MOUNTAINS/SOUTHWEST MOUNTAINS

CITY           SKY/WX    TMP DP  RH WIND       PRES   REMARKS
GALLUP         FAIR      47  41  80 CALM      30.36R
GRANTS         FAIR      46  44  91 NW7       30.38S
SILVER CITY    FAIR      58  53  82 N6        30.24S

$$
NMZ407-409-411-412-291500-
SOUTHERN DESERTS

CITY           SKY/WX    TMP DP  RH WIND       PRES   REMARKS
DEMING         FAIR      67  54  63 NE6       30.18R
LAS CRUCES     FAIR      68  57  67 NW3       30.20R
ALAMOGORDO     FAIR      68  54  60 NE6       30.20R
T OR C         PTSUNNY   65  47  52 NW5       30.23R

$$
NMZ519>523-291500-
CENTRAL VALLEYS/CENTRAL HIGHLANDS

CITY           SKY/WX    TMP DP  RH WIND       PRES   REMARKS
ALBUQUERQUE    FAIR      61  46  57 W5        30.28R
DOUBLE EAGLE   MOSUNNY   61  46  59 N13G23    30.31R
MORIARTY ARPT  FAIR      48  45  89 NW7       30.35S
CLINES CORNERS CLOUDY    55  52  89 E7        30.38R
BELEN          FAIR      62  46  56 NW8       30.28S
SOCORRO        FAIR      61  46  57 N9        30.25R

$$
NMZ524>526-539-540-291500-
SOUTHCENTRAL MOUNTAINS

CITY           SKY/WX    TMP DP  RH WIND       PRES   REMARKS
RUIDOSO        NOT AVBL

$$
NMZ527>531-291500-
NORTHEAST HIGHLANDS/NORTHEAST PLAINS

CITY           SKY/WX    TMP DP  RH WIND       PRES   REMARKS
LAS VEGAS      CLOUDY    54  51  90 N8        30.40R
RATON          CLOUDY    58  48  69 W3        30.37R
CLAYTON        FAIR      63  53  70 NW13      30.28R

$$
NMZ532>537-291500-
EASTCENTRAL PLAINS

CITY           SKY/WX    TMP DP  RH WIND       PRES   REMARKS
TUCUMCARI      LGT RAIN  64  60  87 NW7       30.24S
CANNON AFB     NOT AVBL
CLOVIS AIRPORT CLOUDY    63  59  88 N6        30.25S

$$
NMZ028-029-538-291500-
SOUTHEAST PLAINS

CITY           SKY/WX    TMP DP  RH WIND       PRES   REMARKS
ROSWELL        FAIR      68  59  73 NW5       30.20R
ARTESIA        FAIR      68  64  88 NW6       30.19R
CARLSBAD       PTSUNNY   67  61  81 SW6       30.16S
HOBBS          MOSUNNY   66  66 100 NE7       30.18R


$$




USA.gov is the U.S. government's official web portal to all federal, state and local government web resources and services.